Regional Weather Roundup
Issued by NWS Charleston, SC

Home | Current Version | Previous Version | Text Only | Print | Product List | Glossary On
Versions: 1 2 3 4 5 6 7 8 9 10 11 12 13 14 15 16 17 18 19 20 21 22 23 24 25 26 27 28 29 30 31 32 33 34 35 36 37 38 39 40 41 42 43 44 45 46 47 48 49 50
000
ASUS42 KCHS 192225
RWRCHS

REGIONAL WEATHER ROUNDUP
NATIONAL WEATHER SERVICE CHARLESTON SC
500 PM EST FRI DEC 19 2014

NOTE: "FAIR" INDICATES FEW OR NO CLOUDS BELOW 12,000 FEET WITH NO
SIGNIFICANT WEATHER AND/OR OBSTRUCTIONS TO VISIBILITY.

NOT ALL STATIONS ARE QUALITY CONTROLLED BY THE NATIONAL
WEATHER SERVICE. USE DATA WITH CAUTION...ESPECIALLY
DEWPOINT OBSERVATIONS.

SCZ027-030-031-034>040-042>050-192300-
...SOUTHEAST SOUTH CAROLINA...

CITY           SKY/WX    TMP DP  RH WIND       PRES   REMARKS
N CHARLESTON   CLOUDY    56  44  64 SE8       30.12R
WATERFRONT PRK   N/A     55 N/A N/A E9          N/A
MOUNT PLEASANT LGT RAIN  54  45  71 CALM      30.12R
PINOPOLIS        N/A     61  52  72 CALM      30.00S
MONCKS CORNER  FAIR      59  46  63 CALM      30.11R
SUMMERVILLE    NOT AVBL
BEAUFORT MCAS  MOCLDY    58  46  64 E5        30.11R
BEAUFORT ARPT  FAIR      55  46  71 SE3       30.11R
HILTON HEAD IS MOCLDY    55  48  76 CALM      30.11S
WALTERBORO     MOCLDY    59  41  51 CALM      30.12R
ALLENDALE      FAIR      55  45  67 CALM      30.10S

...SOUTHERN MIDLANDS AND PEE DEE...

CITY           SKY/WX    TMP DP  RH WIND       PRES   REMARKS
GEORGETOWN     NOT AVBL
KINGSTREE      NOT AVBL
ORANGEBURG     MOCLDY    58  41  53 NE3       30.11R
BARNWELL       FAIR      57  45  62 CALM      30.11R
AIKEN          FAIR      57  41  54 CALM      30.13S
MANNING        NOT AVBL
COLUMBIA       PTCLDY    59  38  45 SE5       30.10R
SUMTER         PTCLDY    53  35  51 E3        30.10R
FLORENCE       MOCLDY    56  32  40 NE5       30.12R
MYRTLE BEACH   CLEAR     54  37  54 SE7       30.14S
N MYRTLE BEACH CLEAR     50  39  66 CALM      30.12R

$$

GAZ063-065-086>088-099>101-113>116-118-119-134>141-150-192300-
...SOUTHEAST GEORGIA...

CITY           SKY/WX    TMP DP  RH WIND       PRES   REMARKS
SAVANNAH ARPT  MOCLDY    61  39  44 CALM      30.10S
HUNTER AAF     CLOUDY    61  43  51 W2        30.08S
FORT STEWART   CLOUDY    60  44  55 CALM      30.08S
STATESBORO     MOCLDY    56  49  78 CALM      30.09F
SYLVANIA       PTCLDY    56  47  71 CALM      30.11S
CLAXTON        FAIR      54  48  82 CALM      30.10S

...CSRA...CENTRAL AND FAR SOUTHEAST GEORGIA...

CITY           SKY/WX    TMP DP  RH WIND       PRES   REMARKS
THOMSON        MOCLDY    58  46  64 CALM      30.13S
AUGUSTA-BUSH   CLOUDY    60  40  47 CALM      30.09S
AUGUSTA-DANIEL CLOUDY    62  37  39 CALM      30.09S
SWAINSBORO     FAIR      59  46  63 CALM      30.10S
VIDALIA        CLOUDY    55  46  71 CALM      30.09S
EASTMAN        FAIR      58  46  64 CALM      30.11F
HAZLEHURST     FAIR      58  48  69 CALM      30.08S
ALMA           CLOUDY    61  40  45 N3        30.08F
WAYCROSS       CLOUDY    64  46  53 CALM      30.07F
JESUP          FAIR      59  52  77 CALM      30.08F
BAXLEY         FAIR      59  45  58 CALM      30.08S
BRUNSWICK      PTCLDY    61  45  55 SE3       30.11R
SAINT SIMONS   PTCLDY    58  45  62 E5        30.10S

$$

SCZ027-028-034-036>038-045-046-048>050-GAZ119-141-192300-
...LAKE AND SUPPLEMENTAL COASTAL OBSERVATIONS...

STATION/POSITION TIME  TEMP    WIND        PRES    WAVE   SWELL
                       AIR SEA DIR/SP/G            HT/PER HT/PER/DIR
                 (UTC) (F)     (DEG/KT/KT) (MB)    (FT/S) (FT/S/D)
UPR LAKE MARION  NOT AVBL
WINYAH BAY       2200   53      80/  4     1019.0S
LAKE MURRAY      2100   66        CALM     1018.6S
ACE BASIN NERRS  2200   56     130/  2     1019.0S
FORT PULASKI     2200   56 57  110/  3/  4 1019.5F
SAPELO ISLAND    2200   58     100/  6     1019.0S

$$

ANZ835-935-AMZ111-154-330-350-352-354-370-450-454-472-192300-
...C-MAN AND BUOY OBSERVATIONS...

STATION/POSITION TIME  TEMP    WIND        PRES    WAVE   SWELL
                       AIR SEA DIR/SP/G            HT/PER HT/PER/DIR
                 (UTC) (F)     (DEG/KT/KT) (MB)    (FT/S) (FT/S/D)
BUOY 41004       2200   62 69   70/  2/  4 1019.3R   2/10   2/10
BUOY 41008       2200   58 58   60/  4/  4 1019.4R   1/10   2/100/10
FOLLY BEACH CMAN 2200   55      60/  9/ 11 1020.3R
CAPERS NEARSHORE 2100   55      60/ 12/ 14   N/A
FRIPP NEARSHORE  NOT AVBL


STATION/POSITION TIME  TEMP    WIND        PRES    WAVE   SWELL
                       AIR SEA DIR/SP/G            HT/PER HT/PER/DIR
                 (UTC) (F)     (DEG/KT/KT) (MB)    (FT/S) (FT/S/D)
5E ST. MARYS GA  2200      61                N/A     1/11
FRYING PAN BUOY  2200   55 65   30/  6/ 10 1020.9R   2/ 9   2/ 70/ 9
BUOY 41025       2200   48                 1021.1R   3/ 7
CAPE LOOKOUT NC  2200   47      20/  8/ 10 1020.5R
BUOY 41002       2145   66 72  360/  8/ 12 1018.8R   3/10   3/ 70/10
BUOY 41010       2200   71 76  330/  2/  4 1018.3S   2/10   2/ 70/10
ST AUGUSTINE FL  2200   63      30/  8/  8 1019.4F


$$



USA.gov is the U.S. government's official web portal to all federal, state and local government web resources and services.